| time (UTC) | temp F | wind direction | speed MPH | gust MPH | rain 1hr in | rain 24hr in | rain mn in | humidity % | barometer mb |
| 20260509014600 | 59 | 51 | 0.0 | 0.0 | 0.00 | 0.00 | 0.00 | 63 | 1009.9 |
| 20260509013059 | 60 | 44 | 0.0 | 0.0 | 0.00 | 0.00 | 0.00 | 61 | 1009.7 |
| 20260509011557 | 61 | 44 | 0.0 | 0.0 | 0.00 | 0.00 | 0.00 | 60 | 1009.6 |
| 20260509004620 | 63 | 31 | 0.0 | 4.0 | 0.00 | 0.00 | 0.00 | 54 | 1009.7 |
| 20260509003052 | 65 | 30 | 0.0 | 4.0 | 0.00 | 0.00 | 0.00 | 49 | 1009.9 |
| 20260509001554 | 68 | 29 | 0.0 | 2.0 | 0.00 | 0.00 | 0.00 | 39 | 1009.9 |
| 20260509000050 | 68 | 28 | 0.0 | 4.0 | 0.00 | 0.00 | 0.00 | 39 | 1009.8 |
| 20260508234551 | 69 | 26 | 4.0 | 8.0 | 0.00 | 0.00 | 0.00 | 38 | 1009.7 |
| 20260508233048 | 69 | 74 | 5.0 | 10.0 | 0.00 | 0.00 | 0.00 | 37 | 1009.6 |
| 20260508231547 | 69 | 24 | 5.0 | 14.0 | 0.00 | 0.00 | 0.00 | 37 | 1009.6 |
| 20260508230048 | 70 | 40 | 6.0 | 10.0 | 0.00 | 0.00 | 0.00 | 37 | 1009.7 |
| 20260508224551 | 70 | 23 | 6.0 | 15.0 | 0.00 | 0.00 | 0.00 | 37 | 1009.9 |
| 20260508223049 | 70 | 56 | 7.0 | 15.0 | 0.00 | 0.00 | 0.00 | 36 | 1010.0 |
| 20260508221543 | 71 | 61 | 6.0 | 11.0 | 0.00 | 0.00 | 0.00 | 38 | 1009.8 |
| 20260508220040 | 71 | 337 | 7.0 | 11.0 | 0.00 | 0.00 | 0.00 | 35 | 1009.8 |
| 20260508214556 | 71 | 64 | 6.0 | 11.0 | 0.00 | 0.00 | 0.00 | 37 | 1009.9 |
| 20260508213037 | 71 | 16 | 7.0 | 21.0 | 0.00 | 0.00 | 0.00 | 37 | 1009.9 |
| 20260508211536 | 70 | 318 | 6.0 | 14.0 | 0.00 | 0.00 | 0.00 | 37 | 1010.0 |
| 20260508210037 | 71 | 16 | 7.0 | 19.0 | 0.00 | 0.00 | 0.00 | 37 | 1010.1 |
| 20260508204537 | 70 | 82 | 5.0 | 13.0 | 0.00 | 0.00 | 0.00 | 36 | 1010.2 |
| 20260508203031 | 71 | 61 | 8.0 | 14.0 | 0.00 | 0.00 | 0.00 | 36 | 1010.4 |
| 20260508201531 | 71 | 26 | 4.0 | 15.0 | 0.00 | 0.00 | 0.00 | 40 | 1010.4 |
| 20260508200027 | 71 | 300 | 7.0 | 15.0 | 0.00 | 0.00 | 0.00 | 37 | 1010.6 |
| 20260508194525 | 71 | 33 | 8.0 | 14.0 | 0.00 | 0.00 | 0.00 | 38 | 1011.0 |
| 20260508193021 | 71 | 329 | 5.0 | 12.0 | 0.00 | 0.00 | 0.00 | 38 | 1011.2 |
| 20260508191619 | 70 | 342 | 9.0 | 19.0 | 0.00 | 0.00 | 0.00 | 38 | 1011.5 |
| 20260508190036 | 70 | 350 | 5.0 | 13.0 | 0.00 | 0.00 | 0.00 | 40 | 1011.9 |
| 20260508184527 | 71 | 9 | 8.0 | 13.0 | 0.00 | 0.00 | 0.00 | 39 | 1012.4 |
| 20260508183055 | 69 | 346 | 7.0 | 16.0 | 0.00 | 0.00 | 0.00 | 39 | 1012.5 |
| 20260508181540 | 69 | 83 | 6.0 | 16.0 | 0.00 | 0.00 | 0.00 | 38 | 1012.8 |
| 20260508180047 | 69 | 117 | 6.0 | 14.0 | 0.00 | 0.00 | 0.00 | 40 | 1012.9 |
| 20260508174542 | 69 | 32 | 5.0 | 9.0 | 0.00 | 0.00 | 0.00 | 41 | 1013.1 |
| 20260508173032 | 69 | 116 | 8.0 | 14.0 | 0.00 | 0.00 | 0.00 | 38 | 1013.3 |
| 20260508171529 | 68 | 76 | 6.0 | 11.0 | 0.00 | 0.00 | 0.00 | 41 | 1013.5 |
| 20260508170107 | 68 | 306 | 5.0 | 16.0 | 0.00 | 0.00 | 0.00 | 42 | 1013.8 |
| 20260508164559 | 68 | 355 | 7.0 | 14.0 | 0.00 | 0.00 | 0.00 | 42 | 1014.1 |
| 20260508163052 | 67 | 39 | 6.0 | 11.0 | 0.00 | 0.00 | 0.00 | 42 | 1014.3 |
| 20260508161549 | 66 | 76 | 3.0 | 11.0 | 0.00 | 0.00 | 0.00 | 47 | 1014.8 |
| 20260508160046 | 65 | 11 | 7.0 | 14.0 | 0.00 | 0.00 | 0.00 | 44 | 1015.0 |
| 20260508154544 | 64 | 63 | 4.0 | 14.0 | 0.00 | 0.00 | 0.00 | 46 | 1015.1 |
| 20260508153026 | 64 | 51 | 6.0 | 11.0 | 0.00 | 0.00 | 0.00 | 46 | 1015.1 |
| 20260508151511 | 63 | 317 | 6.0 | 9.0 | 0.00 | 0.00 | 0.00 | 49 | 1015.0 |
| 20260508150055 | 61 | 61 | 7.0 | 11.0 | 0.00 | 0.00 | 0.00 | 53 | 1015.2 |
| 20260508144554 | 60 | 98 | 6.0 | 9.0 | 0.00 | 0.00 | 0.00 | 53 | 1015.2 |
| 20260508143057 | 59 | 38 | 7.0 | 12.0 | 0.00 | 0.00 | 0.00 | 55 | 1015.3 |
| 20260508141600 | 57 | 24 | 3.0 | 11.0 | 0.00 | 0.00 | 0.00 | 58 | 1015.2 |
| 20260508140045 | 56 | 58 | 4.0 | 7.0 | 0.00 | 0.00 | 0.00 | 63 | 1015.3 |
| 20260508134542 | 54 | 51 | 3.0 | 7.0 | 0.00 | 0.00 | 0.00 | 67 | 1015.4 |
| 20260508133037 | 52 | 328 | 1.0 | 4.0 | 0.00 | 0.00 | 0.00 | 72 | 1015.6 |
| 20260508131533 | 50 | 310 | 0.0 | 5.0 | 0.00 | 0.00 | 0.00 | 76 | 1015.6 |
| 20260508130039 | 49 | 292 | 1.0 | 5.0 | 0.00 | 0.00 | 0.00 | 85 | 1015.7 |
| 20260508124536 | 44 | 169 | 0.0 | 0.0 | 0.00 | 0.00 | 0.00 | 95 | 1015.9 |
| 20260508123028 | 42 | 168 | 0.0 | 0.0 | 0.00 | 0.00 | 0.00 | 96 | 1015.7 |
| 20260508121626 | 40 | 167 | 0.0 | 0.0 | 0.00 | 0.00 | 0.00 | 96 | 1015.7 |
| 20260508120029 | 38 | 167 | 0.0 | 0.0 | 0.00 | 0.00 | 0.00 | 96 | 1015.6 |
| 20260508114530 | 37 | 167 | 0.0 | 0.0 | 0.00 | 0.00 | 0.00 | 96 | 1015.6 |
| 20260508113028 | 36 | 167 | 0.0 | 0.0 | 0.00 | 0.00 | 0.00 | 95 | 1015.6 |
| 20260508111526 | 35 | 166 | 0.0 | 0.0 | 0.00 | 0.00 | 0.00 | 95 | 1015.5 |
| 20260508110023 | 34 | 166 | 0.0 | 0.0 | 0.00 | 0.00 | 0.00 | 95 | 1015.3 |
| 20260508104524 | 34 | 166 | 0.0 | 0.0 | 0.00 | 0.00 | 0.00 | 95 | 1015.2 |
| 20260508103025 | 34 | 166 | 0.0 | 0.0 | 0.00 | 0.00 | 0.00 | 95 | 1015.1 |
| 20260508101520 | 34 | 165 | 0.0 | 0.0 | 0.00 | 0.00 | 0.00 | 95 | 1014.9 |
| 20260508100117 | 34 | 165 | 0.0 | 0.0 | 0.00 | 0.00 | 0.00 | 95 | 1014.7 |
| 20260508094546 | 34 | 165 | 0.0 | 0.0 | 0.00 | 0.00 | 0.00 | 95 | 1014.7 |
| 20260508093045 | 35 | 165 | 0.0 | 0.0 | 0.00 | 0.00 | 0.00 | 94 | 1014.7 |
| 20260508091543 | 35 | 165 | 0.0 | 0.0 | 0.00 | 0.00 | 0.00 | 94 | 1014.7 |
| 20260508090040 | 35 | 165 | 0.0 | 0.0 | 0.00 | 0.00 | 0.00 | 94 | 1014.6 |
| 20260508084641 | 35 | 165 | 0.0 | 0.0 | 0.00 | 0.00 | 0.00 | 94 | 1014.6 |
| 20260508083042 | 35 | 165 | 0.0 | 0.0 | 0.00 | 0.00 | 0.00 | 94 | 1014.5 |
| 20260508081510 | 36 | 164 | 0.0 | 0.0 | 0.00 | 0.00 | 0.00 | 94 | 1014.6 |
| 20260508080005 | 36 | 164 | 0.0 | 0.0 | 0.00 | 0.00 | 0.00 | 94 | 1014.4 |
| 20260508074502 | 36 | 164 | 0.0 | 0.0 | 0.00 | 0.00 | 0.00 | 94 | 1014.5 |
| 20260508073004 | 36 | 164 | 0.0 | 0.0 | 0.00 | 0.00 | 0.00 | 94 | 1014.3 |
| 20260508071604 | 37 | 164 | 0.0 | 0.0 | 0.00 | 0.00 | 0.00 | 93 | 1014.3 |
| 20260508070059 | 37 | 164 | 0.0 | 0.0 | 0.00 | 0.00 | 0.00 | 93 | 1014.3 |
| 20260508064555 | 37 | 163 | 0.0 | 4.0 | 0.00 | 0.00 | 0.00 | 93 | 1014.4 |
| 20260508063103 | 37 | 162 | 0.0 | 0.0 | 0.00 | 0.00 | 0.00 | 92 | 1014.5 |
| 20260508061551 | 38 | 162 | 0.0 | 2.0 | 0.00 | 0.00 | 0.00 | 92 | 1014.5 |
| 20260508060050 | 38 | 162 | 0.0 | 0.0 | 0.00 | 0.00 | 0.00 | 92 | 1014.6 |
| 20260508054520 | 38 | 162 | 0.0 | 2.0 | 0.00 | 0.00 | 0.00 | 92 | 1014.4 |
| 20260508053016 | 39 | 160 | 0.0 | 2.0 | 0.00 | 0.00 | 0.00 | 91 | 1014.4 |
| 20260508051513 | 39 | 159 | 0.0 | 0.0 | 0.00 | 0.00 | 0.00 | 91 | 1014.4 |
| 20260508050010 | 39 | 159 | 1.0 | 3.0 | 0.00 | 0.00 | 0.00 | 90 | 1014.4 |
| 20260508044508 | 40 | 159 | 0.0 | 0.0 | 0.00 | 0.00 | 0.00 | 90 | 1014.5 |
| 20260508043006 | 40 | 159 | 0.0 | 0.0 | 0.00 | 0.00 | 0.00 | 89 | 1014.5 |
| 20260508041602 | 41 | 158 | 0.0 | 0.0 | 0.00 | 0.00 | 0.00 | 88 | 1014.4 |
| 20260508040059 | 41 | 158 | 0.0 | 0.0 | 0.00 | 0.00 | 0.00 | 87 | 1014.4 |
| 20260508034611 | 42 | 158 | 0.0 | 0.0 | 0.00 | 0.00 | 0.00 | 87 | 1014.3 |
| 20260508033054 | 43 | 157 | 0.0 | 0.0 | 0.00 | 0.00 | 0.00 | 84 | 1014.4 |
| 20260508031550 | 43 | 157 | 0.0 | 2.0 | 0.00 | 0.00 | 0.00 | 84 | 1014.4 |
| 20260508030047 | 44 | 157 | 0.0 | 4.0 | 0.00 | 0.00 | 0.00 | 83 | 1014.3 |
| 20260508024544 | 45 | 157 | 0.0 | 4.0 | 0.00 | 0.00 | 0.00 | 79 | 1014.2 |
| 20260508023039 | 46 | 155 | 0.0 | 0.0 | 0.00 | 0.00 | 0.00 | 76 | 1014.0 |
| 20260508021505 | 48 | 155 | 0.0 | 0.0 | 0.00 | 0.00 | 0.00 | 74 | 1013.8 |
| 20260508020004 | 49 | 155 | 0.0 | 2.0 | 0.00 | 0.00 | 0.00 | 71 | 1013.7 |